Haines, AK

9:30 AM AKST on February 27, 2017 (GMT -0900)
Haines

Weather History for PAHN - September, 2012

Change the Weather History Date:

Sunday, September 2, 2012

  Actual Average Record
Temperature  
Mean Temperature 53 °F -  
Max Temperature 57 °F 57 °F 79 °F (1977)
Min Temperature 51 °F 46 °F 37 °F (2000)
Degree Days  
Heating Degree Days 12    
Growing Degree Days 3 (Base 50)    
Moisture  
Dew Point 48 °F    
Average Humidity 85    
Maximum Humidity 92    
Minimum Humidity 77    
Precipitation  
Precipitation 0.03 in - - ()
Sea Level Pressure  
Sea Level Pressure 29.98 in    
Wind  
Wind Speed 10 mph (East)    
Max Wind Speed 15 mph    
Max Gust Speed 26 mph    
Visibility 10 miles    
Events Rain    
Averages and records for this station are not official NWS values.
T = Trace of Precipitation, MM = Missing Value Source: NWS Daily Summary

Daily Weather History Graph

Daily Weather History Graph

Search for Another Location

Airport or City:

Trip Planner

Search our weather history database for the weather conditions in past years. The results will help you decide how hot, cold, wet, or windy it might be!

Date:

Astronomy

Sep. 02, 2012 Rise Set
Actual Time 6:02 AM AKDT 7:58 PM AKDT
Civil Twilight 5:19 AM AKDT 8:41 PM AKDT
Nautical Twilight 4:23 AM AKDT 9:36 PM AKDT
Astronomical Twilight 3:14 AM AKDT 10:44 PM AKDT
Moon 7:54 PM AKDT (9/2) 9:08 AM AKDT (9/2)
Length of Visible Light 15h 22m
Length of Day
13h 55m
Waning Gibbous, 95% of the Moon is Illuminated
Sep 2
Waning Gibbous
Sep 8
Last Quarter
Sep 15
New
Sep 22
First Quarter
Sep 29
Full

Hourly Weather History & Observations

Time (AKDT) Temp. Dew Point Humidity Pressure Visibility Wind Dir Wind Speed Gust Speed Precip Events Conditions
12:54 AM 51.1 °F 48.9 °F 92% 29.85 in 10.0 mi ENE 12.7 mph 25.3 mph 0.00 in Rain Light Rain
1:54 AM 51.1 °F 48.9 °F 92% 29.86 in 9.0 mi East 15.0 mph 26.5 mph 0.02 in Rain Light Rain
2:25 AM 51.8 °F 48.2 °F 88% 29.86 in 10.0 mi Variable 6.9 mph - 0.01 in   Overcast
2:54 AM 51.1 °F 48.9 °F 92% 29.88 in 10.0 mi Variable 6.9 mph - 0.01 in   Overcast
3:54 AM 51.1 °F 48.9 °F 92% 29.88 in 10.0 mi East 8.1 mph 16.1 mph 0.00 in   Overcast
4:04 AM 51.8 °F 48.2 °F 88% 29.88 in 10.0 mi East 6.9 mph 19.6 mph N/A   Overcast
4:50 AM 51.8 °F 48.2 °F 88% 29.89 in 10.0 mi ESE 10.4 mph 18.4 mph N/A   Overcast
4:54 AM 51.1 °F 48.0 °F 89% 29.90 in 10.0 mi East 8.1 mph 16.1 mph N/A   Overcast
5:54 AM 51.1 °F 48.0 °F 89% 29.91 in 10.0 mi ESE 8.1 mph 16.1 mph N/A   Overcast
6:37 AM 51.8 °F 48.2 °F 88% 29.93 in 10.0 mi East 10.4 mph 16.1 mph N/A   Overcast
6:45 AM 51.8 °F 48.2 °F 88% 29.93 in 10.0 mi East 10.4 mph 16.1 mph N/A   Overcast
6:48 AM 51.8 °F 48.2 °F 88% 29.93 in 10.0 mi ENE 9.2 mph 16.1 mph N/A   Overcast
6:54 AM 51.1 °F 48.0 °F 89% 29.94 in 10.0 mi ENE 10.4 mph 18.4 mph N/A   Overcast
8:01 AM 51.8 °F 48.2 °F 88% 29.95 in 10.0 mi East 9.2 mph 21.9 mph N/A   Overcast
8:15 AM 51.8 °F 48.2 °F 88% 29.95 in 10.0 mi East 10.4 mph 16.1 mph N/A   Overcast
8:54 AM 52.0 °F 48.0 °F 86% 29.97 in 10.0 mi Variable 6.9 mph - N/A   Overcast
9:54 AM 54.0 °F 48.9 °F 83% 29.99 in 10.0 mi ESE 9.2 mph 18.4 mph N/A   Overcast
10:54 AM 55.0 °F 48.9 °F 80% 30.00 in 10.0 mi ESE 12.7 mph 24.2 mph N/A   Mostly Cloudy
11:07 AM 55.4 °F 48.2 °F 77% 30.00 in 10.0 mi ESE 13.8 mph 20.7 mph N/A   Scattered Clouds
11:54 AM 54.0 °F 48.9 °F 83% 30.02 in 10.0 mi ESE 12.7 mph 20.7 mph N/A   Scattered Clouds
12:10 PM 53.6 °F 48.2 °F 82% 30.01 in 10.0 mi East 10.4 mph 23.0 mph N/A   Mostly Cloudy
12:32 PM 55.4 °F 48.2 °F 77% 30.02 in 10.0 mi ESE 10.4 mph 23.0 mph N/A   Mostly Cloudy
12:52 PM 53.6 °F 48.2 °F 82% 30.02 in 10.0 mi East 10.4 mph 19.6 mph N/A   Mostly Cloudy
12:54 PM 54.0 °F 48.9 °F 83% 30.03 in 10.0 mi ESE 11.5 mph 19.6 mph N/A   Mostly Cloudy
1:54 PM 55.0 °F 48.9 °F 80% 30.03 in 10.0 mi East 12.7 mph 23.0 mph N/A   Mostly Cloudy
2:54 PM 54.0 °F 48.0 °F 80% 30.04 in 10.0 mi East 13.8 mph 18.4 mph N/A   Overcast
3:54 PM 54.0 °F 48.0 °F 80% 30.05 in 10.0 mi East 13.8 mph 21.9 mph N/A   Mostly Cloudy
4:54 PM 54.0 °F 46.9 °F 77% 30.05 in 10.0 mi ESE 11.5 mph 18.4 mph N/A   Mostly Cloudy
5:54 PM 53.1 °F 46.9 °F 80% 30.05 in 10.0 mi East 9.2 mph 20.7 mph N/A   Clear
6:46 PM 53.6 °F 48.2 °F 82% 30.04 in 10.0 mi East 9.2 mph 18.4 mph N/A   Mostly Cloudy
6:54 PM 52.0 °F 48.0 °F 86% 30.05 in 10.0 mi East 9.2 mph - N/A   Mostly Cloudy
7:54 PM 52.0 °F 46.9 °F 83% 30.05 in 10.0 mi ENE 9.2 mph - N/A   Overcast
8:54 PM 52.0 °F 46.9 °F 83% 30.06 in 10.0 mi East 6.9 mph - N/A   Overcast
9:54 PM 52.0 °F 48.0 °F 86% 30.06 in 10.0 mi East 9.2 mph 16.1 mph N/A   Overcast
10:54 PM 52.0 °F 48.0 °F 86% 30.06 in 10.0 mi East 6.9 mph - N/A   Overcast
11:19 PM 51.8 °F 48.2 °F 88% 30.06 in 10.0 mi East 8.1 mph - N/A   Overcast
11:45 PM 51.8 °F 48.2 °F 88% 30.06 in 10.0 mi Variable 3.5 mph - N/A   Overcast
11:54 PM 51.1 °F 48.0 °F 89% 30.07 in 10.0 mi East 10.4 mph 17.3 mph N/A   Overcast